GOL7472 SBBE-SMJP

Flight info

Callsign GOL7472
Flight time N/A
Altitude 34000
Route PUDMI DCT KOGVU UZ41 OTONI UG449 VILAS
Aircraft B738/M-SDGIJ1LRWY/SB1

Departure

Time 2026-05-09 12:01
Airport Val de Cans/Júlio Cezar Ribeiro International Airport (SBBE)

Arrival

Time N/A
Airport Johan Adolf Pengel International Airport (SMJP)
Time Latitude Longitude Altitude Speed Heading
2026-05-09 11:16 -1.39001 -48.47876 42 ft 0 kts 276°
2026-05-09 11:51 -1.39001 -48.47874 41 ft 1 kts 276°
2026-05-09 11:52 -1.39002 -48.47859 41 ft 2 kts 275°
2026-05-09 11:52 -1.39004 -48.47844 41 ft 2 kts 276°
2026-05-09 11:52 -1.39005 -48.47829 41 ft 2 kts 275°
2026-05-09 11:52 -1.39010 -48.47816 41 ft 2 kts 324°
2026-05-09 11:53 -1.39025 -48.47812 41 ft 2 kts 12°
2026-05-09 11:53 -1.39039 -48.47815 41 ft 1 kts
2026-05-09 11:53 -1.39041 -48.47815 41 ft 0 kts
2026-05-09 11:56 -1.39007 -48.47813 41 ft 13 kts
2026-05-09 11:56 -1.38915 -48.47803 42 ft 12 kts
2026-05-09 11:56 -1.38833 -48.47796 42 ft 11 kts
2026-05-09 11:57 -1.38759 -48.47789 43 ft 9 kts
2026-05-09 11:57 -1.38698 -48.47788 43 ft 8 kts 345°
2026-05-09 11:57 -1.38673 -48.47829 43 ft 7 kts 272°
2026-05-09 11:57 -1.38674 -48.47895 44 ft 12 kts 269°
2026-05-09 11:58 -1.38675 -48.47983 44 ft 12 kts 270°
2026-05-09 11:58 -1.38676 -48.48069 44 ft 13 kts 269°
2026-05-09 11:58 -1.38677 -48.48169 45 ft 15 kts 269°
2026-05-09 11:58 -1.38721 -48.48258 45 ft 14 kts 223°
2026-05-09 11:59 -1.38790 -48.48323 44 ft 13 kts 225°
2026-05-09 11:59 -1.38820 -48.48403 44 ft 12 kts 272°
2026-05-09 11:59 -1.38788 -48.48465 44 ft 10 kts
2026-05-09 11:59 -1.38757 -48.48447 44 ft 0 kts 41°
2026-05-09 12:00 -1.38642 -48.48334 45 ft 63 kts 44°
2026-05-09 12:00 -1.38135 -48.47821 46 ft 138 kts 47°
2026-05-09 12:00 -1.37332 -48.47003 320 ft 175 kts 49°
2026-05-09 12:01 -1.36545 -48.46142 1233 ft 172 kts 49°
2026-05-09 12:01 -1.35612 -48.45440 2039 ft 174 kts 21°
2026-05-09 12:01 -1.34395 -48.45356 2663 ft 184 kts 353°
2026-05-09 12:01 -1.33179 -48.45815 3307 ft 193 kts 334°
2026-05-09 12:02 -1.32103 -48.46685 3774 ft 212 kts 314°
2026-05-09 12:02 -1.31110 -48.47890 4204 ft 232 kts 310°
2026-05-09 12:02 -1.30117 -48.49186 4767 ft 244 kts 309°
2026-05-09 12:02 -1.29009 -48.50574 5287 ft 261 kts 311°
2026-05-09 12:03 -1.27801 -48.51999 5781 ft 279 kts 312°
2026-05-09 12:03 -1.26532 -48.53513 6308 ft 295 kts 308°
2026-05-09 12:03 -1.25351 -48.55232 7065 ft 302 kts 303°
2026-05-09 12:03 -1.24237 -48.57035 7858 ft 307 kts 302°
2026-05-09 12:04 -1.23134 -48.58871 8687 ft 309 kts 302°
2026-05-09 12:04 -1.22034 -48.60701 9508 ft 311 kts 302°
2026-05-09 12:04 -1.20905 -48.62546 10283 ft 314 kts 303°
2026-05-09 12:04 -1.19738 -48.64440 10811 ft 327 kts 303°
2026-05-09 12:05 -1.18516 -48.66415 11313 ft 340 kts 303°
2026-05-09 12:05 -1.17238 -48.68480 11732 ft 355 kts 303°
2026-05-09 12:05 -1.15926 -48.70600 12147 ft 369 kts 303°
2026-05-09 12:05 -1.14548 -48.72829 12556 ft 383 kts 303°
2026-05-09 12:06 -1.13122 -48.75136 12911 ft 397 kts 303°
2026-05-09 12:06 -1.11640 -48.77535 13255 ft 411 kts 303°
2026-05-09 12:06 -1.10106 -48.80016 13590 ft 424 kts 303°
2026-05-09 12:06 -1.08536 -48.82559 14078 ft 431 kts 303°
2026-05-09 12:07 -1.06938 -48.85146 14685 ft 435 kts 303°
2026-05-09 12:07 -1.05356 -48.87709 15304 ft 438 kts 303°
2026-05-09 12:07 -1.03752 -48.90309 15890 ft 441 kts 303°
2026-05-09 12:07 -1.02125 -48.92946 16472 ft 444 kts 303°
2026-05-09 12:08 -1.00493 -48.95593 17045 ft 447 kts 303°
2026-05-09 12:08 -0.98856 -48.98246 17528 ft 451 kts 304°
2026-05-09 12:08 -0.97204 -49.00925 18047 ft 454 kts 303°
2026-05-09 12:08 -0.95542 -49.03621 18513 ft 458 kts 303°
2026-05-09 12:09 -0.93883 -49.06313 19058 ft 460 kts 303°
2026-05-09 12:09 -0.92188 -49.09062 19501 ft 464 kts 303°
2026-05-09 12:09 -0.90488 -49.11814 19993 ft 466 kts 303°
2026-05-09 12:10 -0.85315 -49.20178 21267 ft 477 kts 303°
2026-05-09 12:10 -0.83570 -49.23000 21689 ft 480 kts 303°
2026-05-09 12:10 -0.81814 -49.25840 22090 ft 483 kts 303°
2026-05-09 12:11 -0.80046 -49.28701 22465 ft 487 kts 303°
2026-05-09 12:11 -0.78262 -49.31596 22903 ft 489 kts 302°
2026-05-09 12:11 -0.76489 -49.34501 23264 ft 493 kts 302°
2026-05-09 12:11 -0.74705 -49.37443 23671 ft 496 kts 302°
2026-05-09 12:12 -0.72911 -49.40411 24080 ft 499 kts 302°
2026-05-09 12:12 -0.71117 -49.43381 24468 ft 501 kts 302°
2026-05-09 12:12 -0.69315 -49.46366 24894 ft 503 kts 302°
2026-05-09 12:12 -0.67511 -49.49355 25248 ft 506 kts 302°
2026-05-09 12:13 -0.65687 -49.52374 25641 ft 508 kts 302°
2026-05-09 12:13 -0.63854 -49.55406 26236 ft 505 kts 302°
2026-05-09 12:13 -0.62048 -49.58393 26867 ft 501 kts 302°
2026-05-09 12:13 -0.60257 -49.61354 27352 ft 500 kts 302°
2026-05-09 12:14 -0.58464 -49.64312 27818 ft 500 kts 301°
2026-05-09 12:14 -0.56664 -49.67281 28224 ft 501 kts 301°
2026-05-09 12:14 -0.54864 -49.70247 28653 ft 500 kts 301°
2026-05-09 12:14 -0.53051 -49.73236 29168 ft 498 kts 301°
2026-05-09 12:15 -0.51277 -49.76163 29768 ft 494 kts 301°
2026-05-09 12:15 -0.49489 -49.79113 30322 ft 491 kts 301°
2026-05-09 12:15 -0.47719 -49.82002 30859 ft 487 kts 301°
2026-05-09 12:15 -0.45887 -49.84819 31353 ft 485 kts 304°
2026-05-09 12:16 -0.43824 -49.87495 31789 ft 483 kts 309°
2026-05-09 12:16 -0.41585 -49.89957 32241 ft 481 kts 313°
2026-05-09 12:16 -0.39215 -49.92298 32706 ft 479 kts 315°
2026-05-09 12:16 -0.36762 -49.94581 33162 ft 477 kts 316°
2026-05-09 12:17 -0.34311 -49.96793 33602 ft 475 kts 316°
2026-05-09 12:17 -0.31824 -49.99012 33948 ft 475 kts 316°
2026-05-09 12:17 -0.29343 -50.01224 33944 ft 478 kts 316°
2026-05-09 12:18 -0.24349 -50.05695 33949 ft 476 kts 316°
2026-05-09 12:18 -0.19430 -50.10138 33946 ft 476 kts 316°
2026-05-09 12:19 -0.14514 -50.14601 33947 ft 476 kts 316°
2026-05-09 12:19 -0.09608 -50.19066 33946 ft 477 kts 316°
2026-05-09 12:20 -0.04702 -50.23536 33948 ft 476 kts 316°
2026-05-09 12:20 0.00198 -50.28002 33949 ft 475 kts 316°
2026-05-09 12:21 0.05111 -50.32476 33951 ft 476 kts 316°
2026-05-09 12:21 0.10013 -50.36940 33954 ft 477 kts 316°
2026-05-09 12:22 0.14937 -50.41431 33955 ft 477 kts 316°
2026-05-09 12:22 0.19850 -50.45913 33959 ft 477 kts 316°
2026-05-09 12:23 0.24793 -50.50419 33959 ft 477 kts 316°
2026-05-09 12:23 0.29706 -50.54913 33960 ft 477 kts 315°